Location: Camaret
(48.2753°N, 4.5961°W)
Time: 04:36:43
(UTC+00:00)

X-37B - Pass Details

Date: 26 January 2021
Orbit: 383 x 391 km, 45.0° (Epoch: 27 February)

Event Time Altitude Azimuth Distance (km) Brightness Sun altitude
Rises 18:02:29 0° 259° (W) 2,270 6.7 -9.1°
Reaches altitude 10° 18:04:36 10° 253° (WSW) 1,417 5.1 -9.5°
Maximum altitude 18:07:40 46° 179° (S) 529 1.4 -10.0°
Enters shadow 18:10:26 12° 106° (ESE) 1,289 2.7 -10.4°
